Louisville Bowman, KY

6:42 AM EDT on April 25, 2018 (GMT -0400)
Bowman

Weather History for KLOU - January, 2011

Change the Weather History Date:

Monday, January 3, 2011

  Actual Average Record
Temperature  
Mean Temperature 31 °F 35 °F  
Max Temperature 43 °F 43 °F 71 °F (1997)
Min Temperature 19 °F 27 °F 5 °F (1979)
Degree Days  
Heating Degree Days 34 30  
Month to date heating degree days 90 90  
Since 1 July heating degree days 1829 1754  
Cooling Degree Days 0 0  
Month to date cooling degree days 0 0  
Year to date cooling degree days 0 0  
Moisture  
Dew Point 15 °F    
Average Humidity 57    
Maximum Humidity 84    
Minimum Humidity 29    
Precipitation  
Precipitation 0.00 in 0.12 in 1.53 in (1951)
Month to date precipitation 0.53 0.39  
Year to date precipitation 0.53 0.39  
Sea Level Pressure  
Sea Level Pressure 30.27 in    
Wind  
Wind Speed 4 mph (South)    
Max Wind Speed 15 mph    
Max Gust Speed 20 mph    
Visibility 10 miles    
Events      
T = Trace of Precipitation, MM = Missing Value Source: NWS Daily Summary

Daily Weather History Graph

Daily Weather History Graph

Search for Another Location

Airport or City:

Astronomy

Jan. 03, 2011 Rise Set
Actual Time 7:59 AM EST 5:34 PM EST
Civil Twilight 7:30 AM EST 6:04 PM EST
Nautical Twilight 6:57 AM EST 6:37 PM EST
Astronomical Twilight 6:25 AM EST 7:09 PM EST
Moon 7:23 AM EST (1/3) 5:05 PM EST (1/3)
Length of Visible Light 10h 34m
Length of Day
9h 35m
Waning Crescent, 0% of the Moon is Illuminated
Jan 3
Waning Crescent
Jan 4
New
Jan 12
First Quarter
Jan 19
Full
Jan 26
Last Quarter

Hourly Weather History & Observations

Time (EST) Temp. Windchill Dew Point Humidity Pressure Visibility Wind Dir Wind Speed Gust Speed Precip Events Conditions
12:53 AM 21.9 °F - 16.0 °F 78% 30.34 in 10.0 mi Calm Calm - N/A   Clear
1:53 AM 23.0 °F - 16.0 °F 74% 30.32 in 10.0 mi Calm Calm - N/A   Clear
2:53 AM 21.9 °F - 16.0 °F 78% 30.31 in 10.0 mi Calm Calm - N/A   Clear
3:53 AM 21.9 °F - 15.1 °F 75% 30.34 in 10.0 mi Calm Calm - N/A   Clear
4:53 AM 19.9 °F - 16.0 °F 85% 30.34 in 10.0 mi Calm Calm - N/A   Clear
5:53 AM 19.9 °F 14.9 °F 16.0 °F 85% 30.33 in 10.0 mi SSE 3.5 mph - N/A   Clear
6:53 AM 19.9 °F - 16.0 °F 85% 30.32 in 10.0 mi Calm Calm - N/A   Clear
7:53 AM 21.9 °F - 15.1 °F 75% 30.33 in 10.0 mi Calm Calm - N/A   Clear
8:53 AM 24.1 °F 16.0 °F 16.0 °F 71% 30.34 in 10.0 mi South 6.9 mph - N/A   Clear
9:53 AM 27.0 °F 18.7 °F 16.0 °F 63% 30.34 in 10.0 mi South 8.1 mph - N/A   Clear
10:53 AM 30.0 °F 24.1 °F 17.1 °F 59% 30.35 in 10.0 mi South 5.8 mph - N/A   Clear
11:53 AM 35.1 °F 31.0 °F 19.9 °F 54% 30.32 in 10.0 mi South 4.6 mph - N/A   Clear
12:53 PM 39.0 °F 33.4 °F 17.1 °F 41% 30.28 in 10.0 mi SSE 8.1 mph - N/A   Clear
1:53 PM 41.0 °F 34.3 °F 12.9 °F 32% 30.25 in 10.0 mi SSW 11.5 mph - N/A   Clear
2:53 PM 42.8 °F 36.2 °F 12.2 °F 29% 30.21 in 10.0 mi WSW 12.7 mph 17.3 mph N/A   Clear
3:53 PM 42.1 °F 36.6 °F 12.0 °F 29% 30.21 in 10.0 mi SW 9.2 mph - N/A   Clear
4:53 PM 41.0 °F 37.1 °F 12.9 °F 32% 30.20 in 10.0 mi Variable 5.8 mph - N/A   Clear
5:53 PM 37.9 °F 35.5 °F 12.9 °F 36% 30.19 in 10.0 mi South 3.5 mph - N/A   Clear
6:53 PM 37.0 °F 34.5 °F 14.0 °F 39% 30.18 in 10.0 mi SSE 3.5 mph - N/A   Clear
7:53 PM 35.1 °F 32.2 °F 14.0 °F 42% 30.17 in 10.0 mi SSE 3.5 mph - N/A   Clear
8:53 PM 34.0 °F 31.0 °F 15.1 °F 46% 30.19 in 10.0 mi South 3.5 mph - N/A   Clear
9:53 PM 32.0 °F - 16.0 °F 52% 30.19 in 10.0 mi Calm Calm - N/A   Clear
10:53 PM 28.9 °F - 17.1 °F 61% 30.18 in 10.0 mi Calm Calm - N/A   Clear
11:53 PM 28.0 °F - 17.1 °F 63% - 10.0 mi Calm Calm - N/A   Clear